When you browse on this site, cookies collect data to enhance your experience and personalize the content and advertising you see.
Visit our Privacy Policy to learn more. By continuing to use the site, you agree to this use of cookies and data.
  • In Hungary
  • List of Countries
  • For 7 days
  • Water Temperature
  • Weather Map
  • News
  • Weather Widgets
  • user-avatar
    Login

    Hourly Weather Kurtashki

    Today, 23 October, Wednesday

    Time Temperature Precipitation Wind Pressure Humidity
    00:00 +8°C° 0 mm 2 mps 751 mmHg 87%
    01:00 +7°C° 0 mm 3 mps 750 mmHg 88%
    02:00 +7°C° 0 mm 3 mps 750 mmHg 89%
    03:00 +7°C° 0 mm 3 mps 750 mmHg 90%
    04:00 +6°C° 0 mm 4 mps 749 mmHg 91%
    05:00 +7°C° 0 mm 4 mps 749 mmHg 91%
    06:00 +7°C° 0 mm 5 mps 748 mmHg 92%
    07:00 +8°C° 0 mm 5 mps 748 mmHg 91%
    08:00 +9°C° 0 mm 6 mps 748 mmHg 91%
    09:00 +10°C° 0 mm 6 mps 748 mmHg 91%
    10:00 +10°C° 0.2 mm 5 mps 747 mmHg 91%
    11:00 +12°C° 0.2 mm 5 mps 747 mmHg 92%
    12:00 +12°C° 0.2 mm 5 mps 747 mmHg 92%
    13:00 +12°C° 0.7 mm 5 mps 747 mmHg 93%
    14:00 +12°C° 0.7 mm 5 mps 747 mmHg 93%
    15:00 +12°C° 0 mm 5 mps 747 mmHg 93%
    16:00 +12°C° 0.1 mm 5 mps 747 mmHg 92%
    17:00 +12°C° 0.1 mm 4 mps 747 mmHg 92%
    18:00 +12°C° 0.1 mm 4 mps 747 mmHg 92%
    19:00 +11°C° 0 mm 3 mps 747 mmHg 87%
    20:00 +11°C° 0 mm 3 mps 748 mmHg 83%
    21:00 +12°C° 0 mm 2 mps 748 mmHg 78%
    22:00 +10°C° 0 mm 2 mps 748 mmHg 80%
    23:00 +10°C° 0 mm 2 mps 748 mmHg 82%

    Tomorrow, 24 October, Thursday

    Time Temperature Precipitation Wind Pressure Humidity
    00:00 +10°C° 0 mm 2 mps 748 mmHg 84%
    01:00 +9°C° 0 mm 2 mps 749 mmHg 86%
    02:00 +9°C° 0 mm 2 mps 749 mmHg 87%
    03:00 +9°C° 0 mm 2 mps 749 mmHg 88%
    04:00 +9°C° 0 mm 2 mps 749 mmHg 89%
    05:00 +9°C° 0 mm 2 mps 749 mmHg 90%
    06:00 +9°C° 0 mm 2 mps 750 mmHg 90%
    07:00 +9°C° 0 mm 2 mps 750 mmHg 89%
    08:00 +9°C° 0 mm 2 mps 750 mmHg 88%
    09:00 +9°C° 0 mm 2 mps 750 mmHg 87%
    10:00 +10°C° 0 mm 2 mps 750 mmHg 82%
    11:00 +12°C° 0 mm 2 mps 750 mmHg 77%
    12:00 +13°C° 0 mm 2 mps 751 mmHg 72%
    13:00 +13°C° 0 mm 1 mps 751 mmHg 70%
    14:00 +13°C° 0 mm 1 mps 751 mmHg 69%
    15:00 +14°C° 0 mm 1 mps 751 mmHg 68%
    16:00 +13°C° 0 mm 1 mps 751 mmHg 71%
    17:00 +12°C° 0 mm 1 mps 751 mmHg 75%
    18:00 +11°C° 0 mm 0 mps 751 mmHg 78%
    19:00 +10°C° 0 mm 0 mps 751 mmHg 79%
    20:00 +10°C° 0 mm 0 mps 751 mmHg 79%
    21:00 +10°C° 0 mm 0 mps 751 mmHg 79%
    22:00 +10°C° 0 mm 0 mps 751 mmHg 80%
    23:00 +10°C° 0 mm 0 mps 751 mmHg 80%

    Day after tomorrow, 25 October, Friday

    Time Temperature Precipitation Wind Pressure Humidity
    00:00 +10°C° 0 mm 0 mps 751 mmHg 81%
    01:00 +10°C° 0 mm 0 mps 751 mmHg 82%
    02:00 +10°C° 0 mm 0 mps 751 mmHg 83%
    03:00 +9°C° 0 mm 0 mps 751 mmHg 84%
    04:00 +9°C° 0 mm 0 mps 751 mmHg 86%
    05:00 +8°C° 0 mm 0 mps 751 mmHg 88%
    06:00 +9°C° 0 mm 1 mps 751 mmHg 89%
    07:00 +9°C° 0 mm 1 mps 751 mmHg 87%
    08:00 +9°C° 0 mm 0 mps 751 mmHg 84%
    09:00 +9°C° 0 mm 0 mps 752 mmHg 81%
    10:00 +10°C° 0 mm 0 mps 752 mmHg 77%
    11:00 +11°C° 0 mm 0 mps 752 mmHg 72%
    12:00 +12°C° 0 mm 0 mps 752 mmHg 67%
    13:00 +12°C° 0 mm 0 mps 752 mmHg 67%
    14:00 +12°C° 0 mm 0 mps 752 mmHg 67%
    15:00 +12°C° 0 mm 0 mps 752 mmHg 66%
    16:00 +11°C° 0 mm 0 mps 752 mmHg 71%
    17:00 +10°C° 0 mm 0 mps 751 mmHg 76%
    18:00 +9°C° 0 mm 0 mps 751 mmHg 81%
    19:00 +9°C° 0 mm 0 mps 751 mmHg 83%
    20:00 +8°C° 0 mm 0 mps 751 mmHg 85%
    21:00 +8°C° 0 mm 0 mps 751 mmHg 87%
    22:00 +9°C° 0 mm 1 mps 751 mmHg 88%
    23:00 +9°C° 0 mm 1 mps 751 mmHg 89%

    26 October, Saturday

    Time Temperature Precipitation Wind Pressure Humidity
    00:00 +7°C° 0 mm 2 mps 751 mmHg 90%
    01:00 +7°C° 0 mm 2 mps 751 mmHg 91%
    02:00 +7°C° 0 mm 2 mps 750 mmHg 92%
    03:00 +7°C° 0 mm 2 mps 750 mmHg 93%
    04:00 +7°C° 0 mm 2 mps 750 mmHg 93%
    05:00 +7°C° 0 mm 3 mps 750 mmHg 93%
    06:00 +7°C° 0 mm 3 mps 749 mmHg 93%
    07:00 +6°C° 0 mm 4 mps 749 mmHg 90%
    08:00 +7°C° 0 mm 4 mps 749 mmHg 87%
    09:00 +8°C° 0 mm 5 mps 749 mmHg 84%
    10:00 +9°C° 0 mm 5 mps 748 mmHg 80%
    11:00 +10°C° 0 mm 5 mps 748 mmHg 75%
    12:00 +11°C° 0 mm 6 mps 748 mmHg 71%
    13:00 +11°C° 0 mm 6 mps 748 mmHg 71%
    14:00 +11°C° 0 mm 6 mps 747 mmHg 70%
    15:00 +11°C° 0 mm 6 mps 747 mmHg 70%
    16:00 +12°C° 0 mm 5 mps 746 mmHg 73%
    17:00 +10°C° 0 mm 5 mps 746 mmHg 76%
    18:00 +10°C° 0 mm 5 mps 746 mmHg 79%
    19:00 +10°C° 0 mm 5 mps 745 mmHg 81%
    20:00 +10°C° 0 mm 5 mps 745 mmHg 83%
    21:00 +10°C° 0 mm 5 mps 744 mmHg 85%
    22:00 +9°C° 0 mm 5 mps 744 mmHg 87%
    23:00 +9°C° 0 mm 6 mps 743 mmHg 88%

    27 October, Sunday

    Time Temperature Precipitation Wind Pressure Humidity
    00:00 +9°C° 0 mm 6 mps 743 mmHg 89%
    01:00 +9°C° 0 mm 6 mps 742 mmHg 85%
    02:00 +9°C° 0 mm 7 mps 742 mmHg 80%
    03:00 +9°C° 0 mm 7 mps 741 mmHg 76%
    04:00 +9°C° 0.2 mm 7 mps 741 mmHg 78%
    05:00 +8°C° 0.2 mm 7 mps 741 mmHg 80%
    06:00 +8°C° 0.2 mm 7 mps 740 mmHg 82%
    07:00 +8°C° 0.1 mm 7 mps 740 mmHg 83%
    08:00 +9°C° 0.1 mm 6 mps 740 mmHg 83%
    09:00 +9°C° 0.1 mm 6 mps 740 mmHg 83%
    10:00 +9°C° 0 mm 6 mps 740 mmHg 83%
    11:00 +10°C° 0 mm 6 mps 740 mmHg 83%
    12:00 +10°C° 0 mm 6 mps 740 mmHg 84%
    13:00 +10°C° 0 mm 6 mps 740 mmHg 84%
    14:00 +10°C° 0 mm 6 mps 740 mmHg 84%
    15:00 +11°C° 0 mm 6 mps 739 mmHg 85%
    16:00 +10°C° 0 mm 5 mps 739 mmHg 86%
    17:00 +10°C° 0 mm 5 mps 739 mmHg 87%
    18:00 +10°C° 0 mm 5 mps 739 mmHg 88%
    19:00 +10°C° 0 mm 5 mps 739 mmHg 86%
    20:00 +10°C° 0 mm 5 mps 739 mmHg 85%
    21:00 +10°C° 0 mm 5 mps 739 mmHg 83%
    22:00 +10°C° 0 mm 5 mps 739 mmHg 83%
    23:00 +10°C° 0 mm 5 mps 739 mmHg 84%

    28 October, Monday

    Time Temperature Precipitation Wind Pressure Humidity
    00:00 +10°C° 0 mm 5 mps 738 mmHg 84%
    01:00 +10°C° 0.1 mm 5 mps 738 mmHg 84%
    02:00 +10°C° 0.1 mm 6 mps 738 mmHg 83%
    03:00 +10°C° 0.1 mm 6 mps 737 mmHg 83%
    04:00 +10°C° 0 mm 6 mps 737 mmHg 85%
    05:00 +9°C° 0 mm 6 mps 737 mmHg 87%
    06:00 +9°C° 0 mm 6 mps 737 mmHg 89%
    07:00 +9°C° 0 mm 7 mps 737 mmHg 88%
    08:00 +10°C° 0 mm 7 mps 736 mmHg 87%
    09:00 +10°C° 0 mm 7 mps 736 mmHg 86%
    10:00 +10°C° 0 mm 7 mps 736 mmHg 85%
    11:00 +11°C° 0 mm 7 mps 736 mmHg 84%
    12:00 +11°C° 0 mm 7 mps 736 mmHg 82%
    13:00 +11°C° 0 mm 7 mps 736 mmHg 82%
    14:00 +11°C° 0 mm 7 mps 736 mmHg 82%
    15:00 +11°C° 0 mm 7 mps 735 mmHg 81%
    16:00 +11°C° 0.1 mm 7 mps 736 mmHg 80%
    17:00 +11°C° 0.1 mm 7 mps 736 mmHg 78%
    18:00 +11°C° 0.1 mm 7 mps 736 mmHg 76%
    19:00 +10°C° 0 mm 7 mps 737 mmHg 73%
    20:00 +9°C° 0 mm 7 mps 737 mmHg 70%
    21:00 +8°C° 0 mm 6 mps 738 mmHg 66%
    22:00 +7°C° 0 mm 6 mps 738 mmHg 68%
    23:00 +5°C° 0 mm 6 mps 739 mmHg 69%

    29 October, Tuesday

    Time Temperature Precipitation Wind Pressure Humidity
    00:00 +4°C° 0 mm 6 mps 740 mmHg 70%
    01:00 +3°C° 0 mm 6 mps 740 mmHg 70%
    02:00 +3°C° 0 mm 6 mps 741 mmHg 71%
    03:00 +2°C° 0 mm 6 mps 742 mmHg 71%
    04:00 +1°C° 0 mm 5 mps 743 mmHg 72%
    05:00 0°C° 0 mm 5 mps 744 mmHg 74%
    06:00 -1°C° 0 mm 4 mps 745 mmHg 75%
    07:00 -1°C° 0 mm 4 mps 745 mmHg 73%
    08:00 0°C° 0 mm 3 mps 746 mmHg 71%
    09:00 0°C° 0 mm 3 mps 747 mmHg 69%
    10:00 0°C° 0 mm 3 mps 748 mmHg 67%
    11:00 0°C° 0 mm 3 mps 748 mmHg 64%
    12:00 +1°C° 0 mm 3 mps 749 mmHg 62%
    13:00 0°C° 0 mm 3 mps 749 mmHg 62%
    14:00 0°C° 0 mm 3 mps 750 mmHg 62%
    15:00 0°C° 0 mm 3 mps 750 mmHg 62%
    16:00 +1°C° 0 mm 2 mps 750 mmHg 64%
    17:00 -1°C° 0 mm 2 mps 751 mmHg 67%
    18:00 -1°C° 0 mm 2 mps 751 mmHg 69%
    19:00 0°C° 0 mm 1 mps 751 mmHg 70%
    20:00 0°C° 0 mm 1 mps 752 mmHg 70%
    21:00 0°C° 0 mm 1 mps 752 mmHg 71%
    22:00 0°C° 0 mm 1 mps 752 mmHg 70%
    23:00 0°C° 0 mm 1 mps 752 mmHg 70%
    Show more